This demonstration page uses our WeatherBlox Daily Observations layout. Learn more.

Left ArrowRight Arrow

Hourly Observations for October 19, 2018

Temp ( °F °C ) Dew Point ( °F °C ) Humidity (%) Winds ( mph kmh ) Pressure ( in mb ) Visibility ( mi km ) Precip ( " mm )
12:57 am 00:57 Cloudy 51 10.6 47 8.3 86 86 SW 8 13 30.12 1020 10 16 0.02 0.51
2:08 am 02:08 Cloudy 52 11 48 9 88 88 SSW 13 20 30.12 1020 10 16 0.00 0.00
2:57 am 02:57 Cloudy 51 10.6 48 8.9 89 89 SSW 13 20 30.08 1019 10 16 0.00 0.00
3:57 am 03:57 Cloudy 51 10.6 48 8.9 89 89 SSW 14 22 30.04 1017 10 16 0.00 0.00
4:22 am 04:22 Mostly Clear 50 10 46 8 88 88 SSW 14 22 30.06 1018 10 16 0.00 0.00
4:57 am 04:57 Clear 49 9.4 47 8.3 93 93 SSW 13 20 30.03 1017 10 16 0.00 0.00
5:57 am 05:57 Clear 48 8.9 46 7.8 93 93 SSW 14 22 30.03 1017 10 16 0.00 0.00
6:57 am 06:57 Clear 48 8.9 46 7.8 93 93 SW 14 22 30.02 1017 10 16 0.00 0.00
7:57 am 07:57 Sunny 47 8.3 45 7.2 93 93 SW 14 22 30.02 1017 10 16 0.00 0.00
8:57 am 08:57 Sunny 49 9.4 46 7.8 90 90 WSW 15 24 30.05 1018 10 16 0.00 0.00
9:57 am 09:57 Sunny 52 11.1 46 7.8 80 80 W 10 17 30.06 1018 10 16 0.00 0.00
10:57 am 10:57 Sunny 58 14.4 46 7.8 65 65 NW 12 19 30.06 1018 10 16 0.00 0.00
11:57 am 11:57 Sunny 65 18.3 43 6.1 45 45 NW 14 22 30.06 1018 10 16 0.00 0.00
12:57 pm 12:57 Sunny 69 20.6 41 5 36 36 NW 20 31 30.07 1018 10 16 0.00 0.00
1:57 pm 13:57 Sunny 70 21.1 40 4.4 34 34 N 21 33 30.07 1018 10 16 0.00 0.00
2:57 pm 14:57 Sunny 71 21.7 39 3.9 31 31 N 24 39 30.07 1018 10 16 0.00 0.00
3:57 pm 15:57 Sunny 70 21.1 34 1.1 27 27 N 24 39 30.09 1019 10 16 0.00 0.00
4:57 pm 16:57 Sunny 69 20.6 33 0.6 26 26 N 16 26 30.12 1020 10 16 0.00 0.00
5:57 pm 17:57 Sunny 67 19.4 32 0 27 27 N 15 24 30.14 1021 10 16 0.00 0.00
6:57 pm 18:57 Clear 61 16.1 32 0 34 34 NNW 10 17 30.17 1022 10 16 0.00 0.00
7:57 pm 19:57 Clear 54 12.2 32 0 43 43 WNW 7 11 30.21 1023 10 16 0.00 0.00
8:57 pm 20:57 Clear 54 12.2 32 0 43 43 NW 7 11 30.22 1023 10 16 0.00 0.00
9:57 pm 21:57 Clear 50 10 33 0.6 52 52 NW 9 15 30.24 1024 10 16 0.00 0.00
10:57 pm 22:57 Clear 44 6.7 33 0.6 65 65 WNW 9 15 30.27 1025 10 16 0.00 0.00
11:57 pm 23:57 Clear 42 5.6 33 0.6 71 71 WNW 8 13 30.27 1025 10 16 0.00 0.00

Powered by AerisWeather